Dewpoint
55 54 54 53 53 52 52 51 50 49 47 44 42 41 39 39 37 32 31 31 25 20 20 20 18 17 17 14 7 10 9 8 7 2 4 -2 -4 -4 -3 2 -4 -7 -6 -6 -3 -11 -14 5 3 -2 -0 5 7 9
54 54 54 53 52 52 51 51 50 48 47 46 42 41 40 38 36 33 28 32 29 25 23 25 25 24 21 18 16 13 8 8 12 5 0 1 4 -3 -8 -4 1 -6 -2 -3 1 -1 3 5 4 5 6 6 9 11
54 54 54 53 52 52 51 51 50 48 47 46 43 41 39 39 37 33 30 30 28 23 22 22 21 23 24 25 22 14 15 12 8 4 1 1 1 5 -4 -3 -3 1 0 2 4 4 4 5 5 6 7 9 11 14
54 54 54 53 52 52 51 50 49 49 48 46 43 43 41 40 37 34 31 29 25 22 16 19 22 21 23 27 25 22 19 14 8 5 0 -3 2 7 2 0 -1 2 4 3 3 4 5 4 5 6 9 10 12 13
53 53 53 53 52 52 51 50 49 49 48 46 44 44 42 41 37 34 33 32 28 26 17 19 21 22 25 24 22 19 15 10 2 5 -2 2 2 6 5 3 -2 2 2 1 1 3 4 5 6 8 9 10 12 13
53 53 53 52 52 51 51 50 49 48 47 46 45 44 44 40 36 31 29 32 32 29 19 14 21 18 22 22 21 26 25 20 6 6 -1 -6 -1 5 -3 -5 2 -0 -1 2 4 4 6 7 8 9 9 11 13 16
52 53 52 52 52 51 51 50 49 48 47 46 46 45 42 38 35 31 29 29 31 29 21 15 16 19 20 18 17 18 23 18 18 9 7 4 5 6 -1 -3 4 -1 1 2 5 2 5 7 6 8 9 11 14 12
50 52 52 52 52 51 51 50 49 49 48 47 45 44 41 39 36 31 32 32 30 27 24 9 13 14 18 16 14 15 9 14 14 8 8 7 7 6 1 4 -1 -7 -5 -2 2 4 5 5 6 8 8 9 10 10
48 50 52 52 52 51 51 50 49 48 47 46 43 41 37 33 29 30 28 28 28 26 17 14 12 11 15 15 14 16 14 7 15 6 6 13 3 1 4 3 -3 -3 1 -1 -1 1 1 -0 4 5 2 6 9 10
47 49 51 51 51 51 51 50 49 47 45 42 36 31 25 30 37 35 29 25 24 19 20 15 16 13 16 13 13 11 14 10 0 8 13 7 2 3 3 3 1 -4 -4 -8 -0 -0 -1 1 -0 1 0 3 7 10
46 48 49 51 51 51 50 49 46 43 40 34 27 25 32 37 29 25 18 18 13 7 15 16 15 11 14 12 12 12 7 6 -4 5 6 -3 -4 2 -3 -8 -6 -9 -10 -5 -8 -9 -7 -3 -1 2 5 6 9 10
46 47 49 49 50 50 48 45 42 38 35 31 30 31 30 25 20 19 16 12 10 10 13 13 13 13 12 14 11 10 2 -1 -3 8 3 -6 1 1 -6 -3 -5 -10 -12 -9 -11 -4 -3 -1 0 4 6 9 8 9
45 47 48 49 50 48 45 43 41 38 35 31 27 23 22 19 15 14 7 6 9 14 12 12 10 12 13 12 7 6 -1 1 10 -2 -2 0 -1 -1 -1 -8 -5 -12 -15 -13 -10 -10 -5 -2 2 5 8 6 9 11
45 47 48 49 49 46 43 43 40 38 35 28 22 16 19 13 14 14 13 12 15 14 12 12 11 13 13 11 9 2 6 6 -4 -8 -4 2 3 1 -4 -10 -6 -3 -5 -2 -0 1 4 8 10 11 13 13 14 12
44 46 47 48 47 43 43 41 41 33 31 26 26 22 15 16 13 13 15 15 15 14 14 13 13 12 11 8 9 6 3 1 1 0 4 5 1 1 0 0 1 2 3 4 4 6 9 11 11 11 12 11 13 15
44 45 46 48 45 44 42 40 32 29 24 22 18 14 15 14 11 14 15 14 15 13 16 15 11 7 6 8 5 4 3 -0 2 7 8 2 3 5 6 7 8 7 7 8 9 10 12 12 11 10 10 11 12 14
44 40 46 46 44 42 39 31 28 22 20 18 15 19 18 18 15 15 15 13 14 15 13 12 6 5 8 4 4 6 4 7 8 7 7 9 10 9 9 9 9 10 10 11 11 12 12 13 12 12 10 10 11 13
39 45 45 43 37 34 25 26 21 18 13 16 15 16 17 17 16 15 15 16 16 16 13 11 10 5 5 3 6 9 8 8 8 9 10 11 11 10 10 10 10 11 11 12 11 11 10 10 11 12 11 12 11 12
43 42 41 38 34 27 22 19 21 12 12 14 14 16 16 14 16 16 16 16 15 14 12 12 7 6 7 10 11 7 7 8 5 6 8 9 9 9 9 10 11 11 10 9 9 9 9 10 11 11 11 12 12 14
42 41 39 38 34 23 17 16 22 16 12 13 16 13 14 13 15 16 15 14 13 14 10 8 9 9 9 12 10 9 8 7 10 9 7 8 8 7 9 9 10 10 9 8 8 14 9 10 12 13 13 14 14 15
33 33 33 25 19 16 13 13 11 14 14 10 13 13 10 14 14 14 14 15 12 9 9 11 8 8 7 6 7 8 11 11 9 6 5 6 7 8 8 7 7 9 7 6 3 6 14 12 14 16 14 16 16 17
31 33 25 25 16 14 10 11 11 13 11 10 11 12 9 8 9 11 13 7 8 12 12 8 7 7 4 4 7 10 10 9 8 8 12 11 9 7 7 8 6 2 3 5 6 7 10 13 15 16 15 15 17 16
33 29 24 22 14 13 7 13 10 12 8 7 9 7 5 6 6 7 7 9 11 12 9 8 6 5 6 6 8 8 8 7 6 5 6 6 7 8 8 8 9 2 2 7 11 11 8 15 17 17 15 16 15 14
27 18 15 13 12 5 11 8 11 9 8 8 9 2 2 2 3 2 1 7 9 6 6 6 5 5 4 4 3 3 6 7 3 1 3 3 3 2 8 8 8 9 11 9 9 9 10 13 16 15 14 12 11 12
23 15 15 7 9 7 5 7 7 9 6 7 4 -1 -2 -0 -2 -8 -2 5 3 2 5 6 6 6 4 -3 -1 2 6 6 5 3 1 3 -3 -2 2 6 9 10 9 5 6 8 8 10 10 11 10 11 10 10
11 9 11 7 6 8 9 7 8 7 5 3 1 -4 -3 -6 -9 -3 1 2 -0 0 4 5 5 3 1 3 1 1 4 6 5 0 2 4 2 0 -4 -0 -0 5 8 6 1 5 5 6 4 3 6 8 14 14
10 6 7 10 11 9 8 8 7 8 5 1 -3 -5 -3 -5 -6 -0 3 2 1 -0 4 8 8 7 5 5 4 3 2 4 3 2 2 3 4 4 3 -0 1 7 6 3 3 5 3 3 1 2 3 4 7 9
9 9 9 9 8 9 8 8 6 4 3 0 -2 -5 -5 -4 -1 3 4 -1 -7 -5 -0 -2 -0 2 -2 -3 -3 0 -9 -12 -9 -5 -1 -1 -3 -2 0 4 3 15 14 8 5 3 3 1 1 3 3 4 5 9
8 10 11 5 4 4 4 4 4 3 1 1 0 -2 -2 1 -1 -0 2 -2 -8 -2 3 -0 -9 -15 -11 -13 -14 -13 -8 -0 -0 -4 -5 -3 -5 1 -9 -7 -6 -5 -1 4 16 15 4 -1 1 3 4 4 7 8
5 7 4 3 4 2 -3 -6 -5 -5 -4 -5 -4 -1 -0 -0 -2 -2 -2 -5 -3 -6 -9 -10 -12 -8 -8 -6 -9 -8 -16 -10 -3 -0 -2 -3 -3 -3 -8 -6 -5 -4 -2 0 1 0 14 13 14 10 6 3 3 3
2 3 -1 -2 -6 -10 -11 -12 -11 -8 -12 -13 -13 -8 -5 -7 -5 -4 -7 -9 -13 -18 -13 -13 -15 -22 -11 -16 -12 -12 -7 -11 -11 -7 -6 -7 -8 -8 -8 -8 -6 -3 -2 -1 -1 -4 -2 2 8 4 4 2 -1 8
-2 -6 -2 -4 -8 -12 -14 -15 -16 -15 -13 -12 -11 -15 -9 -7 -6 -7 -11 -16 -15 -12 -3 -12 -12 -9 -12 -15 -16 -15 4 -11 -13 -11 -9 -6 -6 -2 -4 -5 -8 -6 -4 -4 -2 -3 -2 2 5 7 7 4 1 3
-10 -11 -11 -10 -10 -12 -13 -16 -15 -16 -16 -16 -15 -18 -20 -13 -11 -9 -13 -17 -14 -15 -15 -15 -15 -17 -16 -15 -13 -13 -3 -16 -8 9 12 14 15 10 3 -2 2 3 3 2 3 4 4 4 6 6 5 5 4 4
Lifted_Index
4 4 5 6 7 8 9 9 9 10 11 15 17 18 18 18 18 16 16 17 15 10 11 14 16 15 15 14 13 15 16 17 16 13 11 11 10 11 11 12 12 11 11 11 12 11 12 16 16 15 16 17 17 16
4 4 4 5 6 7 8 9 9 10 11 14 16 17 18 19 19 17 16 17 16 11 11 14 17 18 19 18 17 17 17 18 17 15 14 12 11 12 11 11 13 13 13 14 14 14 15 17 18 17 17 17 17 16
3 3 4 5 6 7 8 8 9 10 11 13 14 15 17 19 20 18 16 17 16 12 10 13 17 20 22 22 21 19 19 20 20 19 17 14 13 13 12 12 14 16 17 16 16 17 18 18 19 18 18 18 17 17
4 4 4 4 5 6 7 8 9 9 10 11 12 14 16 19 20 19 18 19 17 12 9 11 16 21 22 23 23 22 22 22 22 20 18 15 15 15 15 14 15 16 17 17 17 18 19 19 19 19 18 18 18 17
5 5 4 4 4 5 7 7 8 9 9 10 11 13 15 18 20 19 19 20 19 14 9 10 16 20 22 23 23 23 23 22 21 20 17 16 17 17 16 15 15 17 18 17 17 19 19 19 19 19 18 18 18 18
6 6 5 4 4 5 6 7 8 8 8 9 11 13 15 17 18 16 15 18 21 18 11 10 14 19 21 22 22 23 22 22 21 20 18 18 19 18 15 14 16 18 18 18 19 20 20 20 20 19 18 18 19 19
7 7 6 5 5 5 6 6 7 7 8 9 12 15 16 18 17 14 14 18 21 19 13 10 11 16 20 21 21 21 22 22 22 20 19 19 19 18 15 14 16 18 19 19 20 20 20 20 20 19 19 18 18 19
7 7 7 7 6 5 5 6 6 7 8 11 14 17 18 18 16 15 17 21 22 18 13 9 8 12 18 18 18 20 21 21 21 20 19 18 18 16 15 15 17 18 18 19 20 20 20 20 20 19 19 18 18 18
8 7 7 7 6 5 5 5 6 8 11 14 16 16 17 17 16 17 19 21 21 17 13 9 7 9 14 16 16 19 19 19 18 18 18 17 15 15 15 16 18 18 18 19 19 20 20 20 20 19 18 18 17 17
8 8 7 7 6 6 5 6 8 10 13 14 15 14 15 17 18 17 16 16 16 15 13 10 8 9 12 14 15 17 18 16 15 15 16 14 13 14 16 17 18 18 18 18 18 19 19 19 19 18 18 18 17 17
8 8 7 7 6 6 6 8 9 11 13 13 13 14 17 18 17 14 11 11 12 12 11 10 9 11 13 14 14 16 16 14 13 14 14 12 12 15 17 18 18 18 18 18 18 19 19 19 19 18 18 17 17 17
7 7 7 6 6 6 7 9 10 11 12 13 14 15 17 15 12 9 8 8 8 8 9 9 10 13 16 17 16 16 15 13 13 13 12 11 13 16 17 18 19 19 18 18 19 19 19 19 19 18 17 17 17 17
6 7 7 6 6 6 7 9 10 11 12 13 12 12 12 10 8 6 6 6 6 7 9 9 11 14 17 18 17 15 14 13 13 12 11 12 15 17 18 19 19 19 19 18 18 19 19 19 19 18 17 17 17 17
6 7 7 7 6 6 7 8 10 11 11 11 9 8 7 7 7 6 6 7 8 9 10 11 12 14 16 16 15 14 13 12 11 10 10 13 16 17 18 19 19 19 19 18 18 18 19 19 18 17 17 17 17 16
8 7 7 8 8 8 8 9 11 11 10 10 8 7 6 7 8 8 8 9 11 12 13 13 14 14 14 14 13 12 11 10 9 10 13 15 17 18 18 19 19 19 19 18 18 18 18 18 17 16 16 16 16 15
9 8 8 8 9 10 11 12 13 12 11 10 9 8 8 8 8 8 9 11 13 14 14 14 13 12 13 12 11 11 9 9 11 13 15 17 17 18 18 19 19 19 18 18 18 18 18 17 16 15 15 15 15 14
9 8 8 9 11 13 14 14 13 12 11 10 10 9 9 8 8 9 10 12 14 13 12 12 11 10 11 10 10 10 11 11 13 15 16 17 17 18 18 18 18 18 18 17 18 18 18 17 16 15 14 14 14 13
8 8 8 9 11 14 15 14 13 11 11 10 10 10 10 10 10 11 12 14 15 14 13 12 11 10 9 9 10 12 13 14 15 16 17 17 17 18 18 18 18 17 17 17 17 17 17 16 15 14 13 13 12 12
9 9 10 11 12 13 13 13 13 11 11 11 11 11 10 11 12 14 15 16 16 16 15 13 11 10 10 11 13 14 15 15 16 16 17 17 17 17 17 17 17 16 16 17 17 17 17 15 14 13 13 12 11 11
10 11 13 13 13 13 13 13 13 12 11 11 12 11 11 12 13 14 15 16 16 15 14 12 11 12 13 14 15 16 16 16 16 16 16 17 17 17 17 16 16 16 16 17 17 17 16 15 14 13 12 11 11 10
12 14 14 14 13 13 13 13 13 12 12 12 12 12 11 12 12 13 14 15 14 12 11 11 13 15 16 16 16 16 16 16 16 16 16 16 16 16 16 15 15 15 16 16 17 16 15 14 13 13 12 11 10 10
13 14 14 13 12 12 13 14 14 13 12 11 12 11 11 11 11 12 13 13 12 11 12 13 15 16 16 16 16 17 17 16 16 16 16 15 15 15 15 15 15 15 16 16 16 16 15 14 13 12 11 10 10 10
13 13 12 12 11 12 13 14 13 12 11 11 11 10 9 10 11 12 12 11 11 12 13 15 16 16 16 16 16 16 16 16 16 15 15 15 15 14 14 14 15 15 15 16 16 15 14 13 13 12 11 10 10 9
12 12 11 11 11 11 12 12 12 11 10 9 9 8 8 9 11 10 9 9 10 12 14 15 15 15 15 15 15 15 16 16 15 15 15 14 14 14 14 14 14 15 15 15 15 14 13 12 12 11 10 9 9 9
11 11 11 11 11 11 11 10 9 9 8 8 7 8 9 9 9 8 7 8 10 12 14 14 14 14 14 14 14 15 15 15 15 14 14 14 13 13 14 13 14 14 15 14 14 13 12 11 11 10 9 9 9 8
10 11 11 12 11 10 10 9 8 7 7 7 7 8 9 8 8 8 9 10 12 13 14 14 14 14 14 14 14 15 15 15 14 14 14 14 14 13 13 13 12 13 14 14 13 12 11 10 10 9 9 9 9 9
9 10 10 11 10 9 8 8 7 7 6 7 7 8 8 8 8 10 12 13 14 14 15 15 15 14 14 14 14 15 15 14 14 14 14 14 14 13 13 12 12 13 13 13 13 12 11 10 9 8 8 9 9 9
9 9 9 9 9 8 7 7 7 7 8 8 8 8 8 9 10 12 14 15 16 16 15 15 15 15 15 15 15 14 14 14 13 13 13 13 13 13 12 12 12 12 12 12 12 12 11 10 9 9 9 9 10 10
8 8 7 7 7 7 7 8 8 9 11 11 10 10 11 12 13 15 15 16 16 15 15 15 15 15 15 14 14 14 14 13 13 12 11 11 11 12 12 11 11 11 11 11 11 11 11 10 9 9 9 9 10 10
8 8 7 7 7 8 9 10 11 12 13 13 13 13 13 14 15 16 16 15 15 15 14 14 14 14 14 13 13 13 13 13 12 11 11 10 11 11 11 11 10 10 10 10 10 10 10 10 9 9 9 9 9 10
8 8 7 7 8 9 11 13 13 13 14 14 13 13 13 14 14 15 15 15 14 14 14 14 13 13 13 13 12 12 12 12 12 11 11 11 11 11 11 11 10 10 10 10 10 10 9 9 9 8 8 9 9 9
8 8 8 9 9 11 13 13 13 13 12 12 12 12 12 12 12 13 15 15 14 14 13 13 13 13 13 13 13 12 12 12 12 12 12 11 11 11 11 11 11 10 9 9 9 9 9 8 8 8 8 8 9 9
9 9 10 10 10 11 12 12 12 11 11 11 11 11 11 11 11 13 15 15 14 13 13 13 13 13 13 13 13 13 13 13 12 12 12 11 11 11 12 11 11 10 9 9 9 9 8 8 8 8 8 8 9 9